Content
SEND FEEDBACK

Daily
Averages
Monthly
Summary
France

LE HAVRE, FRANCE


Home > Europe > France
Elevation: 103 meters     Latitude: 49 31N     Longitude: 000 04E

WEATHER
 
SELECT A DAY
Number of Records: 175,964;   Date Range: 3/4/97 - 7/23/14
 
SHARE

PRINT THIS DATA

[ ← Previous Day ]
WEATHER ALMANAC - 11 JANUARY, 2013
[ Next Day → ]
[ °F ]   °C
Weather ElementAverageHighLow
Temperature6.9 °C9 °C (1:00 pm)4 °C (7:00 pm)
Dewpoint4.1 °C6 °C (12:30 am)2 °C (5:00 pm)
Humidity82.5 %93 % (12:30 am)71 % (4:30 pm)
Barometer1017.3 hPa1019 hPa (9:00 am)1015.2 hPa (12:30 am)
Wind Speed16.1 km/h31.5 km/h (1:30 am)
Weather ElementAverage
Visibility10 km
Wind DirectionWNW (280.4 °)

Weather ElementTotal
Precipitation---
Heating Degree Days11.8 (Base 18.3)
Averaged from 47 records on 11 January, 2013
WEATHER CONDITIONS BREAKOUT
WIND DIRECTION BREAKOUT
WEATHER BY HOUR - 11 JANUARY, 2013
[ °F ]   °C
Local TimeTemperatureDewpointHumidityBarometerVisibilityWind DirectionWind SpeedGust SpeedPrecipitationEventsConditions
12:30 AM7 °C6 °C93 %1015.2 hPa8 kmNNW (330°)25.9 km/hRainLight Rain
1:00 AM7 °C5 °C87 %1015.2 hPa10 kmNNW (330°)29.6 km/hRainLight Rain
1:30 AM7 °C5 °C87 %1015.2 hPa10 kmNNW (330°)31.5 km/hRainLight Rain
2:00 AM7 °C5 °C87 %1015.2 hPa10 kmNNW (330°)27.8 km/hMostly Cloudy
2:30 AM7 °C5 °C87 %1016.3 hPa10 kmNW (320°)29.6 km/hMostly Cloudy
3:00 AM7 °C5 °C87 %1016.3 hPa10 kmNNW (330°)31.5 km/hOvercast
3:30 AM7 °C5 °C87 %1016.3 hPa10 kmNNW (330°)27.8 km/hOvercast
4:00 AM7 °C4 °C81 %1016.3 hPa10 kmNNW (330°)27.8 km/hOvercast
4:30 AM7 °C4 °C81 %1016.3 hPa10 kmNorth (350°)25.9 km/hOvercast
5:00 AM7 °C4 °C81 %1017.3 hPa10 kmNorth (350°)25.9 km/hOvercast
5:30 AM7 °C4 °C81 %1017.3 hPa10 kmNorth (350°)24.1 km/hOvercast
6:00 AM7 °C4 °C81 %1017.3 hPa10 kmNorth (350°)24.1 km/hOvercast
6:30 AM6 °C4 °C87 %1017.3 hPa10 kmNorth (350°)20.4 km/hOvercast
7:00 AM6 °C3 °C81 %1017.3 hPa10 kmNorth (350°)18.5 km/hOvercast
7:30 AM6 °C4 °C87 %1017.9 hPa10 kmNorth (350°)14.8 km/hOvercast
8:00 AM6 °C4 °C87 %1017.9 hPa10 kmNorth (350°)14.8 km/hOvercast
8:30 AM7 °C5 °C87 %1017.9 hPa10 kmNNW (340°)16.7 km/hOvercast
9:00 AM6 °C5 °C93 %1019 hPa10 kmNW (320°)13 km/hMostly Cloudy
9:30 AM7 °C5 °C87 %1019 hPa10 kmNW (320°)18.5 km/hOvercast
10:00 AM7 °C5 °C87 %1019 hPa10 kmNNW (330°)18.5 km/hMostly Cloudy
10:30 AM8 °C5 °C81 %1019 hPa10 kmNW (320°)20.4 km/hMostly Cloudy
11:00 AM8 °C5 °C81 %1019 hPa10 kmNW (310°)14.8 km/hMostly Cloudy
11:30 AM8 °C5 °C81 %1019 hPa10 kmNW (310°)18.5 km/hMostly Cloudy
12:00 PM8 °C5 °C81 %1019 hPa10 kmNW (310°)18.5 km/hMostly Cloudy
12:30 PM8 °C5 °C81 %1019 hPa10 kmNW (310°)18.5 km/hMostly Cloudy
1:00 PM9 °C5 °C76 %1019 hPa10 kmNW (310°)16.7 km/hMostly Cloudy
1:30 PM9 °C5 °C76 %1017.9 hPa10 kmNW (320°)16.7 km/hScattered Clouds
2:00 PM9 °C5 °C76 %1017.9 hPa10 kmNW (310°)14.8 km/hMostly Cloudy
2:30 PM9 °C5 °C76 %1017.9 hPa10 kmNW (320°)13 km/hMostly Cloudy
3:00 PM9 °C5 °C76 %1017.9 hPa10 kmNW (310°)11.1 km/hMostly Cloudy
3:30 PM9 °C5 °C76 %1017.9 hPa10 kmWNW (300°)9.3 km/hOvercast
4:00 PM8 °C4 °C76 %1017.9 hPa10 kmWNW (290°)11.1 km/hMostly Cloudy
4:30 PM8 °C3 °C71 %1017.9 hPa10 kmWest (280°)9.3 km/hMostly Cloudy
5:00 PM7 °C2 °C71 %1017.9 hPa10 kmWest (280°)7.4 km/hPartly Cloudy
5:30 PM7 °C2 °C71 %1017.9 hPa10 kmWest (280°)5.6 km/h
6:00 PM6 °C2 °C76 %1017.9 hPa10 kmWest (280°)3.7 km/h
6:30 PM6 °C2 °C76 %1017.9 hPa10 kmWSW (250°)1.9 km/h
7:00 PM4 °C2 °C87 %1017.3 hPa10 kmSW (220°)1.9 km/hMostly Cloudy
7:30 PM5 °C3 °C87 %1017.3 hPa10 kmSSE (150°)3.7 km/hOvercast
8:00 PM5 °C3 °C87 %1017.3 hPa10 kmEast (100°)7.4 km/hOvercast
8:30 PM5 °C3 °C87 %1017.3 hPa10 kmSE (140°)3.7 km/hOvercast
9:00 PM6 °C4 °C87 %1017.3 hPa10 kmEast (100°)9.3 km/hOvercast
9:30 PM6 °C4 °C87 %1017.3 hPa10 kmSE (140°)7.4 km/hOvercast
10:00 PM6 °C4 °C87 %1016.3 hPa10 kmSE (130°)11.1 km/hOvercast
10:30 PM6 °C4 °C87 %1016.3 hPa10 kmSE (130°)13 km/hOvercast
11:00 PM6 °C3 °C81 %1016.3 hPa10 kmESE (120°)11.1 km/hOvercast
11:30 PM6 °C3 °C81 %1015.2 hPa10 kmESE (120°)11.1 km/hOvercast
Hourly data recorded from LFOH, located 0 kilometers away from Le Havre, France







STORIES FROM OUR PARTNERS